Location: Alpine
(43.1636°N, 111.0180°W)
Time: 10:26:54
(UTC+00:00)

Courier 1B Rocket - All Passes

Search period start: 28 May 2022 00:00
Search period end: 07 June 2022 00:00
Orbit: 920 x 1202 km, 28.2° (Epoch: 27 May)

Date Brightness Start Highest point End Pass type
(mag) Time Alt. Az. Time Alt. Az. Time Alt. Az.
28 May - 06:40:46 10° SSW 06:44:53 17° SSE 06:48:54 10° SE night (unlit)
28 May - 08:32:42 10° SW 08:37:18 21° S 08:41:47 10° SE visible
28 May - 10:26:22 10° SW 10:29:36 14° SSW 10:32:50 10° SSE visible
29 May - 05:40:33 10° SSW 05:44:08 15° SSE 05:47:37 10° SE night (unlit)
29 May - 07:31:48 10° SW 07:36:34 21° S 07:41:08 10° SE night (unlit)
29 May - 09:24:54 10° SW 09:28:56 17° SSW 09:32:53 10° SSE visible
30 May - 04:40:53 10° S 04:43:22 12° SSE 04:45:48 10° SE visible
30 May - 06:31:02 10° SW 06:35:47 20° S 06:40:21 10° SE night (unlit)
30 May - 08:23:40 10° SW 08:28:13 20° S 08:32:38 10° SE visible
30 May - 10:18:40 10° SW 10:20:28 11° SSW 10:22:15 10° S visible
31 May - 05:30:25 10° SSW 05:35:00 19° SSE 05:39:23 10° SE visible
31 May - 07:22:34 10° SW 07:27:28 21° S 07:32:11 10° SE night (unlit)
31 May - 09:16:24 10° SW 09:19:48 15° SSW 09:23:10 10° SSE visible
01 Jun - 04:30:02 10° SSW 04:34:11 16° SSE 04:38:11 10° SE visible
01 Jun - 06:21:34 10° SW 06:26:41 22° S 06:31:34 10° SE visible
01 Jun - 08:14:48 10° SW 08:19:06 18° SSW 08:23:16 10° SSE night (unlit)
02 Jun - 03:30:08 10° S 03:33:22 13° SSE 03:36:31 10° SE visible
02 Jun - 05:20:41 10° SW 05:25:51 21° S 05:30:48 10° SE visible
02 Jun - 07:13:28 10° SW 07:18:22 21° S 07:23:03 10° SE visible
02 Jun - 09:08:32 10° SW 09:10:38 12° SSW 09:12:43 10° S night (unlit)
03 Jun - 02:32:10 10° SSE 02:32:33 10° SSE 02:32:55 10° SSE daylight
03 Jun - 04:19:58 10° SSW 04:25:00 20° S 04:29:50 10° SE visible
03 Jun - 06:12:17 10° SW 06:17:34 23° S 06:22:36 10° SE visible
03 Jun - 08:06:12 10° SW 08:09:57 15° SSW 08:13:35 10° SSE night (unlit)
04 Jun - 03:19:31 10° SSW 03:24:09 17° SSE 03:28:37 10° SE daylight
04 Jun - 05:11:12 10° SW 05:16:43 23° S 05:21:58 10° SE visible
04 Jun - 07:04:32 10° SW 07:09:13 19° SSW 07:13:42 10° SSE visible
05 Jun - 02:19:29 10° S 02:23:16 14° SSE 02:26:59 10° SE daylight
05 Jun - 04:10:16 10° SW 04:15:50 23° S 04:21:10 10° SE visible
05 Jun - 06:03:08 10° SW 06:08:25 22° S 06:13:27 10° SE visible
05 Jun - 07:58:09 10° SW 08:00:44 12° SSW 08:03:17 10° S night (unlit)
06 Jun - 01:20:33 10° S 01:22:25 11° SSE 01:24:16 10° SE daylight
06 Jun - 03:09:31 10° SW 03:14:56 21° S 03:20:09 10° ESE daylight
06 Jun - 05:01:53 10° SW 05:07:34 24° S 05:12:58 10° SE visible
06 Jun - 06:55:52 10° SW 07:00:01 16° SSW 07:04:01 10° SSE visible
